#timestamp,LO_Frequency,Hit,StdDev 
1685138415.7,286046999.0,N
1685138435.5,286046998.8,N
1685138455.4,286046996.5,Y
1685138475.2,286046999.1,P
1685138495.0,286046998.4,P
1685138496.0,286046998.4,P
1685138515.8,286046999.6,N
1685138535.6,286046999.4,N
1685138555.5,286046999.4,N
1685138575.3,286046999.1,N
1685138595.1,286046996.6,Y
1685138615.9,286047001.2,P
1685138635.7,286047001.1,N
1685138655.6,286047000.7,N
1685138675.4,286047000.7,N
1685138695.2,286047001.0,N
1685138715.1,286047000.7,N
1685138716.0,286047000.7,N
1685138735.8,286046999.9,N
1685138755.7,286047001.0,N
1685138775.5,286047000.8,N
1685138795.3,286046998.5,N
1685138815.2,286046998.6,N
1685138835.0,286047001.1,N
1685138835.9,286047001.1,N
1685138855.7,286046999.0,N
1685138875.6,286046999.3,N
1685138895.4,286046998.3,N
1685138915.3,286046998.6,N
1685138935.1,286046999.4,N
1685138936.0,286046999.4,N
1685138955.8,286046996.6,Y
1685138975.7,286046999.5,P
1685138995.5,286046997.1,P
1685139015.4,286046999.5,N
1685139035.2,286046998.4,N
1685139055.0,286047000.7,N
1685139055.9,286047000.7,N
1685139075.8,286046998.3,N
1685139095.6,286046998.7,N
1685139115.4,286046999.5,N
1685139135.3,286046996.9,N
1685139155.1,286046997.0,N
1685139175.9,286046996.7,N
1685139195.7,286046996.6,N
1685139215.5,286046996.6,N
1685139235.4,286046999.6,N
1685139255.2,286046998.8,N
1685139275.0,286046998.9,N
1685139275.9,286046998.9,N
1685139295.8,286046999.1,N
1685139315.6,286046999.4,N
1685139335.5,286046996.6,N
1685139355.3,286046999.4,N
1685139375.1,286046999.3,N
1685139395.9,286046998.9,N
1685139415.7,286046999.2,N
1685139435.5,286046999.4,N
1685139455.4,286046996.9,N
1685139475.2,286046996.6,N
1685139495.1,286046996.5,N
1685139496.0,286046996.5,N
1685139515.8,286046998.9,N
1685139535.6,286046999.1,N
1685139555.5,286046996.5,N
1685139575.3,286046996.9,N
1685139595.1,286046996.9,N
1685139615.9,286046996.9,N
1685139635.7,286046999.4,N
1685139655.6,286046999.6,N
1685139675.4,286046997.1,N
1685139695.2,286046999.6,N
1685139715.1,286046998.7,N
1685139716.0,286046998.7,N
1685139735.8,286046996.6,N
1685139755.7,286046997.2,N
1685139775.5,286046997.7,N
1685139795.3,286046997.1,N
1685139815.2,286046997.6,N
1685139835.9,286046997.2,N
1685139855.7,286046994.9,Y
1685139875.6,286046998.9,P
1685139895.4,286046999.0,N
1685139915.3,286046999.2,N
1685139935.1,286046999.1,N
1685139936.0,286046999.1,N
1685139955.8,286046999.1,N
1685139975.7,286046996.8,Y
1685139995.5,286046996.6,P
1685140015.3,286046999.5,N
1685140035.2,286046999.2,N
1685140055.0,286046998.9,N
1685140055.9,286046998.9,N
1685140075.8,286046998.9,N
1685140095.6,286046998.3,N
1685140115.4,286046998.2,N
1685140135.3,286046998.5,N
1685140155.1,286047001.2,N
1685140175.9,286046998.1,N
1685140195.7,286046998.1,N
1685140215.5,286046998.2,N
1685140235.4,286047000.9,N
1685140255.2,286047000.3,N
1685140275.0,286046999.8,N
1685140276.0,286046999.8,N
1685140295.8,286046999.8,N
1685140315.6,286046999.7,N
1685140335.5,286047001.6,N
1685140355.3,286047001.5,N
1685140375.1,286047002.0,N
1685140395.9,286047002.0,N
1685140415.7,286047001.9,N
1685140435.6,286047004.2,N
1685140455.4,286047003.0,N
1685140475.2,286047003.1,N
1685140495.1,286047003.3,N
1685140496.0,286047003.3,N
1685140515.8,286047003.8,N
1685140535.6,286047003.7,N
1685140555.5,286047005.5,N
1685140575.3,286047003.5,N
1685140595.1,286047002.9,N
1685140615.9,286047005.9,N
1685140635.7,286047005.5,N
1685140655.6,286047005.3,N
1685140675.4,286047005.4,N
1685140695.2,286047005.9,N
1685140715.1,286047004.8,N
1685140716.0,286047004.8,N
1685140735.8,286047005.7,N
1685140755.7,286047003.3,N
1685140775.5,286047005.1,N
1685140795.3,286047004.9,N
1685140815.2,286047005.4,N
1685140835.9,286047007.6,Y
1685140855.7,286047001.7,P
1685140875.6,286047003.9,P
1685140895.4,286047001.7,N
1685140915.3,286047004.3,Y
1685140935.1,286047002.5,P
1685140936.0,286047002.5,P
1685140955.8,286047000.1,N
1685140975.7,286047002.4,N
1685140995.5,286047002.5,N
1685141015.3,286047000.0,N
1685141035.2,286047002.7,N
1685141055.0,286047002.8,N
1685141055.9,286047002.8,N
1685141075.8,286047002.3,N
1685141095.6,286047002.1,N
1685141115.4,286047001.8,N
1685141135.3,286047002.7,N
1685141155.1,286047002.4,N
1685141175.9,286047001.9,N
1685141195.7,286047002.3,N
1685141215.5,286047002.7,Y
1685141235.4,286047001.1,P
1685141255.2,286047001.1,N
1685141275.0,286047000.7,N
1685141276.0,286047000.7,N
1685141295.8,286047000.4,N
1685141315.6,286046999.9,N
1685141335.5,286047000.3,N
1685141355.3,286047001.2,N
1685141375.1,286047001.0,N
1685141395.9,286047000.8,N
1685141415.7,286047001.2,N
1685141435.6,286047001.0,N
1685141455.4,286047002.6,Y
1685141475.2,286046998.7,P
1685141495.1,286047000.8,N
1685141496.0,286047000.8,N
1685141515.8,286047000.4,N
1685141535.7,286047000.9,N
1685141555.5,286047000.1,N
1685141575.3,286047000.0,N
1685141595.2,286047000.1,N
1685141615.0,286047002.6,Y
1685141615.9,286047002.6,P
1685141635.7,286047003.8,P
1685141655.6,286047001.8,N
1685141675.4,286047002.4,N
1685141695.3,286047002.6,N
1685141715.1,286047002.6,N
1685141735.8,286047002.6,N
1685141755.7,286047002.3,N
1685141775.5,286047002.0,N
1685141795.4,286047002.8,Y
1685141815.2,286046998.5,P
1685141835.0,286046998.1,N
1685141835.9,286046998.1,N
1685141855.8,286047001.2,N
1685141875.6,286047001.1,N
1685141895.5,286046998.4,N
1685141915.3,286046998.2,N
1685141935.1,286046999.0,N
1685141955.9,286046999.3,N
1685141975.7,286046999.5,N
1685141995.5,286046999.3,N
